Location: Klickitat County Star Party
(45.8642°N, 120.6771°W)
Time: 06:00:51
(UTC-07:00)

SO-50 - Pass Details

Date: 04 June 2019
Orbit: 586 x 700 km, 64.6° (Epoch: 20 June)

Event Time Altitude Azimuth Distance (km) Brightness Sun altitude
Rises 22:04:59 0° 328° (NNW) 3,092 ? -10.8°
Reaches altitude 10° 22:08:14 10° 350° (N) 2,165 ? -11.2°
Maximum altitude 22:11:18 16° 28° (NNE) 1,767 ? -11.5°
Drops below altitude 10° 22:14:21 10° 67° (ENE) 2,135 ? -11.9°
Enters shadow 22:17:08 - 87° (E) 2,908 ? -12.2°
